STARLINK-30492, 57921

Orbit data source: Space-Track

STARLINK-30492, 57921 is a payload satellite owned by SpaceX/Seattle (US) in LEO that was launched on Sun, 24 Sep 2023 UTC via an FALCON 9 launch vehicle from the Air Force Eastern Test Range (AFETR). Payload-class satellites include a variety of spacecraft equipped with specific instruments for various scientific and technological missions. These include communications satellites like Starlink; space stations such as the ISS; scientific satellites like the Hubble; Earth observation satellites from companies like Planet Labs, Umbra, and HawkEye 360; GPS; miniature CubeSats for education and research; and military/defense satellites.

Loading next visibility...
Identifier
57921, 2023-147J
Orbit
LEO
Country
Flag of USUS
Related business
Manufacturer
SpaceX/Seattle
Mission
Operational Commercial Communications
Bus & Motor
STARLINK V2M, Unknown motor
Mass
730 kg wet, ~700 kg dry
Launch date (UTC)
2023-09-24 (3 years ago)
Launch vehicle
FALCON 9
Launch site
Air Force Eastern Test Range (AFETR)
Object type
Payload
Rocket body
Debris
Shape & HBR
Box + 2 Pan, 17.7 m
Radar Cross Section
33.884 m², Large (>1 m²)

Expand to show TLE details & history
Last TLE update: 2 days ago

TLE from 2 days ago
0 STARLINK-30492
1 57921U 23147J   26171.19757058 -.00001548  00000-0 -46712-4 0  9994
2 57921  43.0046 106.4376 0001558 252.9013 107.1669 15.27585586152270
Epoch: 2026-06-20T04:44Z
TLE epoch observation values (Epoch: 2026-06-20T04:44:30.098Z)
Latitude
0.00006°
Longitude
126.89661°
Altitude
483.124 km
Speed
7.625 km/s
True Right ascension
07h 05m 45s
True Declination
0° 00' 00"
Sunlit
Object was in daylight at epoch
Visualization orbit readout
Latitude
Unknown
Longitude
Unknown
Altitude
Unknown
Speed
Unknown
Apparent Right ascension
Unknown
Apparent Declination
Unknown
Sunlit
N/A
Visualization observer readout
Local Sidereal Time
21:33:45
Azimuth
Unknown
Elevation
Unknown
Doppler factor
Unknown
Orbital elements
Apogee altitude
486.046 km
Perigee altitude
483.908 km
Semi-major axis
6,863.114 km
Eccentricity
0.00016
Inclination
43.0046°
RAAN
106.4376°
Arg. of periapsis
252.9013°
True anomaly
107.18396°
Mean anomaly
107.1669°
Eccentric anomaly
107.17543°
Mean motion
3.81734 °/min
Orbital period
94.31 mins
BSTAR
-0.000046712
Loading maneuver chart data...
Computing Atmospheric mass density...

Documentation

Showing up to 5 results
|